This demonstration page uses our WeatherBlox Daily Observations layout. Learn more.

Left ArrowRight Arrow

38.88101, -77.10428

Hourly Observations for June 12, 2021

Temp ( °F °C ) Dew Point ( °F °C ) Humidity (%) Winds ( mph kmh ) Pressure ( in mb ) Visibility ( mi km ) Precip ( " mm )
12:52 am 00:52 Cloudy 67 19.4 64 17.8 91 91 NE 9 15 29.83 1010 8 13 N/A
1:48 am 01:48 Cloudy 66 19 63 17 88 88 NE 10 17 29.82 1010 10 16 N/A
1:52 am 01:52 Cloudy 66 18.9 63 17.2 90 90 NE 9 15 29.82 1010 10 16 N/A
2:24 am 02:24 Cloudy 67 19.4 62 16.7 84 84 NE 13 20 29.81 1009 10 16 N/A
2:52 am 02:52 Cloudy 67 19.4 62 16.7 84 84 NNE 8 13 29.80 1009 10 16 N/A
3:52 am 03:52 Cloudy 66 18.9 61 16.1 84 84 NNE 10 17 29.79 1009 10 16 N/A
4:32 am 04:32 Cloudy 65 18.3 61 16.1 87 87 N 10 17 29.81 1009 10 16 N/A
4:52 am 04:52 Cloudy 65 18.3 61 16.1 87 87 N 14 22 29.81 1009 10 16 N/A
5:43 am 05:43 Cloudy 65 18.3 61 16.1 87 87 N 10 17 29.81 1009 10 16 N/A
5:52 am 05:52 Cloudy 65 18.3 61 16.1 87 87 N 9 15 29.80 1009 10 16 N/A
6:52 am 06:52 Cloudy 66 18.9 60 15.6 81 81 N 12 19 29.80 1009 10 16 N/A
7:52 am 07:52 Cloudy 66 18.9 61 16.1 84 84 N 12 19 29.82 1010 10 16 N/A
8:52 am 08:52 Cloudy 66 18.9 60 15.6 81 81 NNE 9 15 29.84 1011 10 16 N/A
9:35 am 09:35 Cloudy 67 19.4 60 15.6 79 79 NE 8 13 29.85 1011 10 16 N/A
9:52 am 09:52 Cloudy 68 20 60 15.6 76 76 NNE 8 13 29.85 1011 10 16 N/A
10:52 am 10:52 Cloudy 69 20.6 60 15.6 73 73 N 9 15 29.86 1011 10 16 N/A
11:52 am 11:52 Cloudy 73 22.8 60 15.6 64 64 NE 8 13 29.86 1011 10 16 N/A
12:46 pm 12:46 Cloudy 73 23 57 14 57 57 NNE 5 7 29.87 1011 10 16 N/A
12:52 pm 12:52 Cloudy 74 23.3 59 15 60 60 NNE 9 15 29.87 1012 10 16 N/A
1:52 pm 13:52 Cloudy 75 23.9 60 15.6 60 60 ENE 5 7 29.86 1011 10 16 N/A
2:52 pm 14:52 Cloudy 77 25 61 16.1 58 58 E 7 11 29.86 1011 10 16 N/A
3:52 pm 15:52 Cloudy 78 25.6 60 15.6 54 54 NE 5 7 29.85 1011 10 16 N/A
4:52 pm 16:52 Mostly Cloudy 79 26.1 61 16.1 54 54 ENE 6 9 29.83 1010 10 16 N/A
5:52 pm 17:52 Partly Cloudy 78 25.6 59 15 52 52 N N/A 29.81 1010 10 16 N/A
6:52 pm 18:52 Mostly Sunny 79 26.1 60 15.6 52 52 NNE 3 6 29.83 1010 10 16 N/A
7:52 pm 19:52 Mostly Cloudy 76 24.4 61 16.1 60 60 ENE 6 9 29.86 1011 10 16 N/A
8:52 pm 20:52 Cloudy 75 23.9 58 14.4 55 55 E 7 11 29.86 1011 10 16 N/A
9:52 pm 21:52 Partly Cloudy 73 22.8 61 16.1 66 66 SSE 7 11 29.87 1012 10 16 N/A
10:52 pm 22:52 Mostly Cloudy 72 22.2 62 16.7 71 71 SSW 3 6 29.89 1012 10 16 N/A
11:52 pm 23:52 Cloudy 72 22.2 62 16.7 71 71 SW 5 7 29.90 1013 10 16 N/A

Powered by AerisWeather